www.pogodaiklimat.ru

Погода и климат >> Архив погоды >> Россия >> Магаданская область >> Озеро Джека Лондона


ПОГОДА на Озере Джека Лондона

  • Прогноз погоды на Озере Джека Лондона
  • Монитор погоды на Озере Джека Лондона

АРХИВ ПОГОДЫ на Озере Джека Лондона

Время (UTC), дата Ветер
(напр.,м/с)
 
Видим.   Явления Облачность Т
(С)
Тd
(С)
f
(%)
Тe
(С)
Тes
(С)
Комфортность P
(гПа)
Po
(гПа)
Тmin
(С)
Tmax
(С)
R
(мм)
R24
(мм)
S
(см)
09 15.08 С 1 50 км ясно +14.4 +4.9 53 +15 +15 1018.8 926.7 +17.7
12 15.08 штиль 0 н/о н/о +8.3 +5.8 84 +7 +7 1022.3 928.0
15 15.08 штиль 0 50 км ясно +6.5 +5.0 90 +6 +6 1023.0 928.0
18 15.08 штиль 0 н/о н/о +5.7 +4.3 91 +5 +5 1024.7 929.3
21 15.08 ЮВ 1 20 км дым ясно +9.6 +5.6 76 +9 +12 1023.0 928.9 +5.3
00 16.08 Ю 1 н/о н/о +14.9 +5.4 53 +16 +16 1021.5 929.3
03 16.08 Ю 2 20 км дым ясно +17.7 +5.9 46 +18 +27 1020.6 929.3
06 16.08 Ю 2 н/о н/о +18.6 +5.4 42 +19 +19 1018.9 928.0
09 16.08 ЮЗ 2 н/о н/о +15.6 +7.5 59 +16 +16 1019.7 927.8 +18.9
12 16.08 СВ 1 н/о н/о +9.9 +6.2 78 +10 +10 1023.2 929.3
15 16.08 З 2 50 км ясно +8.0 +5.1 82 +6 +6 1023.9 929.3
18 16.08 З 1 н/о н/о +6.0 +4.0 87 +5 +5 1024.6 929.3
21 16.08 З 1 50 км ясно +10.6 +4.1 64 +11 +13 1022.9 929.1 +5.8
00 17.08 ЮВ 2 н/о н/о +16.1 +6.2 52 +16 +16 1021.1 929.3
03 17.08 Ю 3 50 км ясно +18.4 +5.9 44 +19 +26 1020.4 929.3
06 17.08 Ю 2 н/о н/о +19.3 +5.0 39 +20 +20 1020.1 929.3
09 17.08 В 4 50 км ясно +15.7 +6.5 54 +15 +15 1020.1 928.2 +20.2
12 17.08 В 1 н/о н/о +9.5 +7.3 86 +9 +9 1024.9 930.7
15 17.08 СЗ 2 50 км ясно +7.4 +5.2 86 +5 +5 1025.6 930.7
18 17.08 штиль 0 н/о н/о +6.8 +5.0 88 +6 +6 1025.9 930.7
21 17.08 штиль 0 50 км ясно +11.0 +5.3 68 +11 +13 1023.2 929.5 +6.5
00 18.08 ЮЗ 1 н/о н/о +16.9 -1.3 29 +18 +18 1022.5 930.7
03 18.08 Ю 2 50 км ясно +19.1 +2.0 32 +20 +29 1020.2 929.3
06 18.08 Ю 1 н/о н/о +19.6 -0.4 26 +21 +21 комфорт 1020.1 929.3
09 18.08 З 2 50 км 3/0
[Ci fib]
+15.6 +2.2 40 +16 +16 1020.4 928.3 +20.0
12 18.08 СЗ 1 н/о н/о +8.7 +5.4 80 +8 +8 1023.6 929.3
15 18.08 штиль 0 50 км 3/0
[Ci fib]
+7.0 +3.1 76 +6 +6 1025.8 930.7
18 18.08 В 1 н/о н/о +6.6 +5.5 93 +5 +5 1025.9 930.7
21 18.08 штиль 0 50 км 6/0
[Ci fib]
+10.6 +6.1 74 +10 +12 1024.6 930.7 +6.4
00 19.08 Ю 1 н/о н/о +16.7 +4.4 44 +18 +18 1022.5 930.7
03 19.08 ЮВ 4 50 км 7 баллов +19.8 +8.2 47 +21 +22 комфорт 1021.4 930.7
06 19.08 ЮВ 6 н/о н/о +19.9 +6.9 43 +20 +20 1019.9 929.3
09 19.08 В 1 50 км 3/0
[Ci fib]
+16.8 +7.7 55 +18 +18 1020.8 929.3 +20.7
12 19.08 штиль 0 н/о н/о +10.2 +8.3 88 +9 +9 1024.6 930.7
15 19.08 ЮВ 1 50 км ясно +9.0 +7.8 92 +8 +8 1025.0 930.7
18 19.08 штиль 0 н/о н/о +8.6 +7.8 95 +8 +8 1025.1 930.7
21 19.08 штиль 0 50 км ясно +11.8 +8.7 81 +11 +14 1023.1 929.7 +7.7
00 20.08 ЮВ 3 н/о н/о +18.1 +10.2 60 +18 +18 1020.3 929.3
03 20.08 ЮВ 3 50 км 1/1 600 м
[Cu hum]
+20.3 +8.6 47 +22 +28 комфорт 1019.7 929.3
06 20.08 ЮВ 4 н/о н/о +20.8 +9.4 48 +23 +23 комфорт 1018.1 928.0
09 20.08 ЮВ 3 50 км ясно +17.5 +10.9 65 +18 +18 1018.3 927.2 +21.4
12 20.08 штиль 0 н/о н/о +11.5 +9.4 87 +11 +11 1021.1 928.0
15 20.08 ЮВ 1 50 км ясно +10.4 +9.5 94 +10 +10 1021.5 928.0
18 20.08 штиль 0 н/о н/о +9.7 +9.2 97 +9 +9 1021.8 928.0
21 20.08 штиль 0 50 км 4/0
[Ci fib]
+12.8 +9.9 83 +12 +15 1020.1 927.4 +9.3
00 21.08 ЮВ 3 н/о н/о +19.3 +10.6 57 +21 +21 комфорт 1018.5 928.0
03 21.08 ЮВ 2 50 км 3/1 600 м
[Cu hum Ci fib]
+22.8 +9.2 42 +24 +31 комфорт 1016.0 926.7
06 21.08 ЮВ 3 н/о н/о +22.3 +9.4 44 +24 +24 комфорт 1014.6 925.3
09 21.08 Ю 1 50 км 8/0
[Ac trans Ci fib]
+18.6 +10.9 61 +20 +20 1015.2 924.7 +23.7
12 21.08 З 1 н/о н/о +12.7 +10.1 84 +13 +13 1019.3 926.7
15 21.08 штиль 0 н/о н/о +11.2 +10.1 93 +10 1018.2 925.3
18 21.08 ЮВ 1 н/о н/о +11.4 +10.1 92 +11 1019.7 926.7
21 21.08 штиль 0 н/о н/о +13.9 +11.5 85 +14 +14 1018.2 926.0 +10.9
03 22.08 В 2 н/о н/о +23.8 +7.8 36 +24 1015.7 926.7

 

Местоположение метеостанции Озеро Джека Лондона (Магаданская область, Россия): широта 62.08 долгота 149.50 высота над уровнем моря 807 м.

В архиве по умолчанию представлена погода на Озере Джека Лондона за последнюю неделю. Архивные данные за месяц целиком и за предыдущие месяцы, начиная с января 2011 года, Вы можете получить, выбрав интересующий диапазон дат из раскрывающегося списка и нажав кнопку "Ввод!".


*Определитесь, кто Вы:
робот инопланетянин человек

Внимание! Время в таблицах - всемирное. Для получения местного времени необходимо прибавить поправку, которая равна 11 ч.

Смотрите также архив погоды в соседних городах и на ближайших метеорологических станциях:

Погода в Ягодной (Магаданская область, Россия) (48 км)
Погода в Усть-Бохапче (Магаданская область, Россия) (57 км)
Погода в Совхозе Эльген (Магаданская область, Россия) (98 км)
Погода в Колымской (Магаданская область, Россия) (103 км)
Погода в Сусумане (Магаданская область, Россия) (106 км)
Погода в Усть-Омчуге (Магаданская область, Россия) (107 км)
Погода в Среднекане (Магаданская область, Россия) (151 км)
Погода в Сеймчане (Магаданская область, Россия) (175 км)
Погода в Мадауне (Магаданская область, Россия) (177 км)
Погода в Талой (Магаданская область, Россия) (182 км)

Пояснения к столбцам:

Ветер - указаны скорость ветра в м/с - средняя за 10 мин, порывы в срок и между сроками (в фигурных скобках) и направление, откуда дует ветер: С - северный, СВ - северо-восточный, В - восточный, ЮВ - юго-восточный, Ю - южный, ЮЗ - юго-западный, З - западный, СЗ - северо-западный.
Видимость - горизонтальная дальность видимости в метрах или километрах. При видимости от 1 до 10 км при отсутствии осадков обычно наблюдается дымка, при ухудшении видимости до 1 км и менее - туман. В сухую погоду видимость может ухудшаться дымом, пылью или мглою.
Явления - указаны атмосферные явления, наблюдавшиеся в срок или в последний час перед сроком; фигурными скобками обозначены явления, наблюдавшиеся между сроками (за 1-3 часа до срока); квадратными скобками обозначены град или гололедные отложения с указанием их диаметра в мм.
Облачность - указаны через наклонную черту общая и нижняя облачность в баллах и высота нижней границы облаков в метрах; квадратными скобками обозначены формы облаков: Ci - перистые, Cs - перисто-слоистые, Cc - перисто-кучевые, Ac - высококучевые, As - высокослоистые, Sc - слоисто-кучевые, Ns - слоисто-дождевые, Cu - кучевые, Cb - кучево-дождевые. Подробнее классификацию облаков см. в Атласе облаков (PDF).
T - Температура воздуха - температура, измеренная на высоте 2 м над землей.
Td - Температура точки росы - температура, при понижении до которой содержащийся в воздухе водяной пар достигнет насыщения.
f - Относительная влажность воздуха - влажноcть воздуха, измеренная на высоте 2 м над землей.
Te - Эффективная температура - температура, которую ощущает одетый по сезону человек в тени. Характеристика душности погоды. При расчете учитывается влияние влажности воздуха и скорости ветра на теплоощущения человека.
Tes - Эффективная температура на солнце - температура, которую ощущает человек, с поправкой на солнечный нагрев. Характеристика знойности погоды. Зависит от высоты солнца над горизонтом, облачности и скорости ветра. Ночью, в пасмурную погоду, а также при ветре 12 м/с и более поправка равна нулю.
P - Атмосферное давление - приведенное к уровню моря атмосферное давление.
Po - Атмосферное давление - измеренное на уровне метеостанции атмосферное давление.
Tmin - Минимальная температура - минимум температуры воздуха на высоте 2 м над землей.
Tmax - Максимальная температура - максимум температуры воздуха на высоте 2 м над землей.
R - Количество осадков - Количество выпавших осадков за период времени, мм. При наведении курсора мыши на число - период времени, за который выпало указанное количество осадков.
R24 - Количество осадков - Количество выпавших осадков за 24 часа, мм.
S - Снежный покров - Высота снежного покрова, см. При наведении курсора мыши на число - состояние снежного покрова и степень покрытия местности в баллах.